{"data":{"norad_id":67786,"intl_designator":"2026-030Y","name":"KUIPER-00259","alt_names":[],"object_type":"PAYLOAD","status":"ACTIVE","operator":null,"country":"US","launch_date":"2026-02-12","launch_site_code":"FRGUI","launch_vehicle":null,"mission":null,"orbit_class":"UNKNOWN","rcs_meters":null,"size_class":null,"mass_kg":null,"dimensions":null,"purposes":[],"wikipedia_slug":null,"has_3d_model":false,"image_url":null,"decayed_at":null,"tle_current":{"epoch":"2026-09-20T03:41:42.982944Z","epoch_age_seconds":116225,"freshness":"FRESH","line1":"1 67786U 26030Y   26263.15396971 -.00000880  00000+0 -86443-4 0  9991","line2":"2 67786  51.8988  58.1826 0000708 112.8482 247.2555 14.79927313 34188","mean_motion":14.79927313,"eccentricity":7.08e-5,"inclination_deg":51.8988,"raan_deg":58.1826,"arg_perigee_deg":112.8482,"mean_anomaly_deg":247.2555,"bstar":-8.6443e-5,"rev_number":3418,"period_min":97.302076078381,"perigee_km":629.05743718906,"apogee_km":630.04972617542,"semimajor_km":7007.6905816822,"source":"CELESTRAK","updated_at":"2026-09-21T09:00:16.856815Z"}}}